Regional Weather Roundup
Issued by NWS

Home | Current Version | Previous Version | Graphics & Text | Print | Product List | Glossary On
Versions: 1 2 3 4 5 6 7 8 9 10 11 12 13 14 15 16 17 18 19 20 21 22 23 24 25 26 27
000
ASUS45 KCYS 301110
RWRWY

WYOMING REGIONAL WEATHER ROUNDUP
NATIONAL WEATHER SERVICE CHEYENNE WY
500 AM MDT SAT JUL 30 2016

NOTE:  "FAIR" INDICATES FEW OR NO CLOUDS BELOW 12,000 FEET
WITH NO SIGNIFICANT WEATHER AND/OR OBSTRUCTIONS TO VISIBILITY.

WYZ001-301200-
YELLOWSTONE NATIONAL PARK

CITY           SKY/WX    TMP DP  RH WIND       PRES   REMARKS
LK YELLOWSTONE   N/A     43  41  93 CALM      30.20F
W YELLOWSTONE  NOT AVBL

$$
WYZ002>013-054>058-071-098>099-301200-
NORTHERN WYOMING

CITY           SKY/WX    TMP DP  RH WIND       PRES   REMARKS
JACKSON        FAIR      46  37  71 N3        30.12S
CODY           FAIR      57  48  72 S5        30.01S
GREYBULL       FAIR      63  48  58 SE5       29.96S
WORLAND        FAIR      61  45  55 SE5       29.97F
SHERIDAN       FAIR      54  48  80 CALM      29.94F
BUFFALO        FAIR      60  47  61 W8        30.01F
GILLETTE       FAIR      60  57  89 S8        29.98F
HULETT         FAIR      63  54  72 SW5       30.00F
NEWCASTLE      FAIR      64  52  63 SE5       30.02F

$$
WYZ014>020-022>026-101>103-301200-
CENTRAL WYOMING

CITY           SKY/WX    TMP DP  RH WIND       PRES   REMARKS
BIG PINEY      FAIR      50  30  46 E6        30.19F
PINEDALE       FAIR      45  36  70 N6        30.20F
DUBOIS         FAIR      50  39  66 NW8       30.19F
LANDER         FAIR      58  43  57 S5        30.09F
RIVERTON       FAIR      57  47  69 NW6       30.07F
CASPER         FAIR      52  51  97 CALM      30.06F
DOUGLAS        FAIR      60  57  89 S3        30.05R

$$
WYZ021-027>030-104>119-301200-
SOUTHERN WYOMING

CITY           SKY/WX    TMP DP  RH WIND       PRES   REMARKS
EVANSTON       FAIR      60  32  34 SE7       30.17F
KEMMERER         N/A     54  30  40 N9        30.20S
FORT BRIDGER   FAIR      61  30  31 W6        30.20S
ROCK SPRINGS   FAIR      59  43  55 SE6       30.16F
DIXON          FAIR      46  32  60 CALM      30.17S
RAWLINS        FAIR      55  50  83 CALM      30.15F
SARATOGA       FAIR      46  41  81 CALM      30.18R
LARAMIE        FAIR      55  53  93 S9        30.16F
CHEYENNE       CLOUDY    60  58  92 S7        30.11F
TORRINGTON     FAIR      60  58  92 NW3       30.02F
PINE BLUFFS    FAIR      57  55  94 CALM      30.09S

$$




USA.gov is the U.S. government's official web portal to all federal, state and local government web resources and services.